Houghton, MI

2:19 PM EDT on May 25, 2017 (GMT -0400)
Houghton County Memorial

Weather History for KCMX - October, 2012

Change the Weather History Date:

Monday, October 1, 2012

  Actual Average Record
Temperature  
Mean Temperature 50 °F -  
Max Temperature 63 °F 59 °F 83 °F (1963)
Min Temperature 37 °F 41 °F 28 °F (1955)
Degree Days  
Heating Degree Days 15    
Moisture  
Dew Point 46 °F    
Average Humidity 81    
Maximum Humidity 100    
Minimum Humidity 50    
Precipitation  
Precipitation 0.01 in - - ()
Sea Level Pressure  
Sea Level Pressure 29.85 in    
Wind  
Wind Speed 5 mph (WNW)    
Max Wind Speed 17 mph    
Max Gust Speed -    
Visibility 10 miles    
Events      
Averages and records for this station are not official NWS values.
T = Trace of Precipitation, MM = Missing Value Source: NWS Daily Summary

Daily Weather History Graph

Daily Weather History Graph

Search for Another Location

Airport or City:

Trip Planner

Search our weather history database for the weather conditions in past years. The results will help you decide how hot, cold, wet, or windy it might be!

Date:

Astronomy

Oct. 01, 2012 Rise Set
Actual Time 7:53 AM EDT 7:32 PM EDT
Civil Twilight 7:23 AM EDT 8:02 PM EDT
Nautical Twilight 6:47 AM EDT 8:38 PM EDT
Astronomical Twilight 6:11 AM EDT 9:14 PM EDT
Moon 7:58 PM EDT (10/1) 9:32 AM EDT (10/1)
Length of Visible Light 12h 39m
Length of Day
11h 39m
Full, 98% of the Moon is Illuminated
Oct 1
Full
Oct 8
Last Quarter
Oct 15
New
Oct 21
First Quarter
Oct 29
Full

Hourly Weather History & Observations

Time (EDT) Temp. Windchill Dew Point Humidity Pressure Visibility Wind Dir Wind Speed Gust Speed Precip Events Conditions
12:53 AM 43.0 °F 41.3 °F 43.0 °F 100% 29.91 in 10.0 mi ENE 3.5 mph - N/A   Clear
1:53 AM 45.0 °F 43.5 °F 45.0 °F 100% 29.89 in 10.0 mi East 3.5 mph - 0.01 in   Clear
2:53 AM 48.0 °F - 44.1 °F 86% 29.87 in 10.0 mi South 4.6 mph - N/A   Clear
3:53 AM 45.0 °F - 42.1 °F 90% 29.86 in 10.0 mi Calm Calm - N/A   Clear
4:53 AM 44.1 °F - 42.1 °F 93% 29.85 in 10.0 mi Calm Calm - N/A   Clear
5:53 AM 43.0 °F - 41.0 °F 93% 29.84 in 10.0 mi Calm Calm - N/A   Clear
6:53 AM 43.0 °F - 41.0 °F 93% 29.83 in 10.0 mi Calm Calm - N/A   Clear
7:53 AM 37.9 °F - 37.0 °F 97% 29.84 in 10.0 mi Calm Calm - N/A   Clear
8:53 AM 46.9 °F - 43.0 °F 86% 29.83 in 10.0 mi Calm Calm - N/A   Clear
9:53 AM 48.9 °F - 43.0 °F 80% 29.83 in 10.0 mi SW 4.6 mph - N/A   Clear
10:53 AM 53.1 °F - 45.0 °F 74% 29.82 in 10.0 mi SW 4.6 mph - N/A   Clear
11:53 AM 60.1 °F - 43.0 °F 53% 29.81 in 10.0 mi West 15.0 mph - N/A   Clear
12:53 PM 63.0 °F - 44.1 °F 50% 29.81 in 10.0 mi West 11.5 mph - N/A   Clear
1:53 PM 61.0 °F - 50.0 °F 67% 29.81 in 10.0 mi WNW 10.4 mph - N/A   Clear
2:53 PM 59.0 °F - 50.0 °F 72% 29.81 in 10.0 mi WNW 12.7 mph - N/A   Clear
3:53 PM 59.0 °F - 48.2 °F 67% 29.80 in 10.0 mi West 17.3 mph - N/A   Clear
4:53 PM 59.0 °F - 48.9 °F 69% 29.83 in 10.0 mi WNW 17.3 mph - N/A   Partly Cloudy
5:53 PM 57.2 °F - 48.2 °F 72% 29.83 in 10.0 mi West 15.0 mph - N/A   Scattered Clouds
6:53 PM 57.0 °F - 51.1 °F 81% 29.86 in 10.0 mi WNW 8.1 mph - N/A   Mostly Cloudy
7:53 PM 54.0 °F - 51.1 °F 90% 29.88 in 10.0 mi WNW 6.9 mph - N/A   Mostly Cloudy
8:53 PM 55.0 °F - 51.1 °F 86% 29.89 in 10.0 mi NNW 9.2 mph - N/A   Overcast
9:53 PM 55.0 °F - 48.9 °F 80% 29.90 in 10.0 mi North 5.8 mph - N/A   Overcast
10:53 PM 54.0 °F - 48.9 °F 83% 29.90 in 10.0 mi North 6.9 mph - N/A   Overcast
11:53 PM 51.1 °F - 48.0 °F 89% 29.91 in 10.0 mi North 8.1 mph - N/A   Partly Cloudy